Temp
59 55 54 55 45 40 35 42 44 47 48 54 55 56 57 58 58 52 58 64 67 68 70 72 74 75 75 74 74 74 75 75 75 76 76 76 76 76 75 75 75 75 75 74 73 72 72 71 70
56 58 54 46 38 32 36 40 45 51 53 52 56 54 53 56 55 55 59 65 69 69 71 72 72 74 74 74 74 74 74 74 74 75 75 76 76 75 75 74 74 74 73 72 72 71 70 70 70
58 57 50 44 35 36 37 41 49 50 55 55 52 53 53 55 54 57 63 68 70 70 71 71 71 73 74 73 73 73 73 73 73 74 74 74 74 74 74 73 73 72 72 71 71 70 70 69 70
55 52 46 37 37 40 44 45 47 47 50 53 53 51 50 54 56 60 64 69 69 69 70 70 72 73 73 73 73 73 73 73 73 73 73 73 72 72 71 71 71 70 70 70 70 69 69 68 68
50 45 37 33 38 42 44 49 48 48 49 53 54 51 50 54 57 61 66 69 68 67 68 70 71 72 72 72 72 72 73 73 73 73 72 72 71 71 70 70 69 69 68 68 68 67 67 67 67
46 43 32 36 42 43 47 50 49 50 50 50 51 49 52 52 57 65 65 65 69 67 67 69 67 70 71 71 71 72 72 72 72 72 71 71 70 70 69 69 68 68 67 67 67 66 66 66 66
42 37 34 32 41 41 50 50 50 55 48 54 54 52 49 50 58 62 61 62 66 67 67 67 68 68 67 68 69 70 71 71 70 70 70 69 68 68 68 67 67 67 66 66 66 65 65 65 64
45 40 34 36 43 46 52 50 52 52 53 52 58 53 52 53 58 58 58 59 64 64 65 64 64 65 66 66 65 66 67 68 68 68 66 65 65 65 65 64 65 65 65 65 64 63 63 62 62
44 36 33 39 43 50 51 49 51 52 53 50 54 51 52 54 59 57 56 56 58 61 62 62 62 62 63 63 62 63 64 65 64 62 60 56 51 52 53 60 63 64 64 64 63 61 60 57 57
42 36 41 47 52 49 52 51 53 49 49 50 49 50 51 57 58 58 57 57 58 58 58 61 60 60 60 62 59 57 56 54 53 52 50 49 48 48 52 55 60 61 61 61 60 58 56 50 45
42 42 47 48 54 51 51 49 50 49 45 53 54 51 51 55 57 58 59 59 59 59 58 58 60 59 58 57 55 53 50 49 49 48 47 47 47 46 45 44 45 44 49 45 46 45 44 45 44
38 43 49 49 51 50 47 50 48 51 55 54 55 53 51 55 56 58 59 60 59 57 56 55 57 57 57 56 55 52 49 46 45 46 47 45 43 43 43 42 42 42 42 42 42 42 44 44 45
40 42 46 50 52 49 49 47 48 47 54 52 51 51 51 52 55 58 58 61 61 56 54 54 52 55 55 54 52 49 46 45 45 45 46 44 43 42 42 42 41 41 41 41 41 41 42 42 44
42 43 46 48 46 46 47 48 45 47 54 50 51 50 50 52 53 56 56 57 59 57 54 53 52 54 55 54 52 48 46 45 44 44 44 45 43 42 42 41 41 40 41 40 40 40 40 40 42
43 38 43 45 43 44 44 42 42 50 54 52 49 50 50 51 52 54 55 55 57 56 55 53 52 51 52 52 50 47 46 45 43 43 44 45 44 43 41 41 40 40 40 40 40 40 40 40 42
35 33 30 42 44 43 45 36 49 53 51 51 49 52 50 52 52 55 56 56 55 55 54 54 55 51 50 49 48 47 45 44 43 43 43 44 44 43 41 40 39 39 39 39 39 38 38 38 38
36 28 30 34 43 42 42 38 46 51 52 52 56 55 53 52 50 52 53 54 54 55 54 52 53 51 50 48 48 46 45 44 43 42 42 43 44 43 41 40 39 39 39 38 39 37 37 37 37
28 28 31 31 37 40 38 39 46 48 50 50 53 55 52 54 54 55 54 55 55 55 54 53 52 51 50 49 44 42 42 41 41 42 42 43 42 42 40 39 39 39 38 37 37 37 36 36 35
35 32 30 35 40 39 37 39 44 46 47 50 52 48 46 49 56 55 54 53 51 53 53 52 51 51 49 45 44 42 44 41 39 40 43 42 42 42 40 38 38 38 37 37 37 36 36 35 35
33 31 30 36 39 37 36 35 39 42 44 48 49 48 44 44 47 49 50 48 50 51 52 52 52 50 50 50 49 44 45 39 43 42 42 43 42 41 40 39 38 37 36 36 36 37 34 34 34
30 29 31 29 33 38 33 32 35 38 41 44 46 49 51 47 48 50 45 47 50 51 51 52 52 50 50 50 45 39 39 37 37 38 40 40 42 41 40 39 38 37 37 36 36 36 36 34 34
24 35 33 33 30 23 33 21 33 39 40 42 47 49 49 46 47 51 46 45 46 50 53 54 52 51 50 49 46 44 44 40 43 44 42 39 41 40 39 39 37 37 36 36 36 37 35 35 34
23 30 31 30 28 26 27 23 30 38 35 38 44 48 50 48 49 51 52 50 49 51 51 52 52 50 50 48 48 46 48 47 38 39 38 40 38 39 39 38 37 36 36 36 36 35 34 34 33
34 28 29 29 27 19 25 24 27 27 35 40 43 46 49 51 50 52 55 51 49 49 49 49 49 48 48 47 47 47 47 38 38 38 38 38 37 36 36 37 35 35 35 34 34 34 33 32 32
30 24 18 17 17 17 30 25 29 31 41 43 44 45 47 46 48 51 49 47 47 45 46 47 47 46 46 45 46 45 45 41 41 39 40 36 34 32 34 35 33 33 34 34 33 32 32 31 31
19 23 20 13 15 19 25 20 26 40 43 34 40 40 44 43 46 48 47 47 46 45 44 46 45 45 43 45 44 44 41 43 43 41 40 38 37 36 35 34 34 34 33 33 32 31 31 31 30
22 19 23 20 9 15 14 23 31 33 35 40 41 42 41 39 39 41 43 43 44 42 42 45 44 44 42 43 43 42 41 41 39 38 39 38 37 34 34 33 32 31 31 31 30 28 27 28 27
29 30 19 21 9 11 9 13 20 21 28 34 29 31 33 32 33 34 35 36 39 39 39 42 43 41 40 42 41 40 39 38 36 35 35 34 33 34 32 31 29 28 28 28 27 24 24 27 25
23 24 25 25 22 14 13 15 17 20 19 22 24 29 27 28 28 28 29 29 27 28 30 33 35 34 36 37 38 36 35 35 34 35 34 33 31 32 31 30 27 26 25 24 25 25 27 27 28
29 25 26 18 15 15 14 15 14 12 13 17 23 27 26 26 24 24 26 23 24 25 27 27 31 34 34 34 34 34 34 34 33 32 31 31 31 30 29 28 27 26 26 25 27 25 26 25 26
MSLP
1012.39 1012.84 1013.11 1013.46 1014.83 1015.46 1014.55 1013.49 1012.41 1011.38 1010.43 1008.98 1008.66 1008.77 1008.70 1008.45 1009.31 1009.85 1009.04 1008.69 1008.44 1009.03 1009.44 1009.88 1010.32 1010.84 1011.25 1011.66 1011.96 1012.49 1013.11 1013.44 1013.65 1013.74 1013.70 1013.99 1014.26 1014.44 1014.67 1014.96 1015.24 1015.51 1015.82 1016.15 1016.49 1016.79 1016.97 1017.13 1017.19
1012.68 1012.97 1013.46 1014.39 1015.22 1015.65 1014.05 1012.66 1011.90 1010.42 1009.42 1008.82 1008.58 1008.57 1008.82 1008.68 1008.86 1009.20 1009.43 1009.03 1008.59 1008.98 1009.50 1009.84 1010.31 1010.95 1011.53 1011.80 1012.06 1012.42 1013.31 1013.63 1013.82 1013.99 1014.07 1014.17 1014.39 1014.59 1014.89 1015.15 1015.50 1015.81 1016.21 1016.57 1016.75 1017.04 1017.13 1017.31 1017.36
1012.52 1012.83 1013.82 1014.38 1015.04 1014.29 1013.28 1011.82 1010.69 1009.81 1009.29 1008.92 1008.61 1008.47 1008.82 1008.79 1009.08 1009.18 1008.89 1008.93 1009.02 1009.10 1009.53 1010.11 1010.39 1010.80 1011.45 1011.95 1012.34 1012.97 1013.44 1013.69 1013.99 1014.18 1014.34 1014.63 1014.84 1014.95 1015.22 1015.57 1015.92 1016.27 1016.64 1016.94 1016.99 1017.22 1017.30 1017.39 1017.43
1012.93 1013.55 1014.50 1014.34 1013.82 1012.50 1011.86 1010.77 1010.39 1009.64 1008.82 1008.63 1008.35 1008.53 1008.64 1008.60 1008.81 1008.96 1008.96 1009.17 1009.06 1009.47 1009.70 1010.04 1010.51 1011.13 1011.64 1012.06 1012.50 1013.10 1013.58 1013.80 1014.20 1014.37 1014.55 1014.97 1015.15 1015.39 1015.70 1016.10 1016.48 1016.77 1016.99 1017.17 1017.37 1017.48 1017.56 1017.66 1017.71
1013.26 1014.10 1014.47 1014.06 1012.97 1011.27 1011.06 1010.27 1009.99 1009.52 1008.94 1008.33 1008.46 1008.48 1008.51 1008.49 1008.48 1008.98 1009.27 1009.37 1009.51 1009.75 1010.15 1010.28 1010.58 1011.13 1011.59 1012.19 1012.66 1013.15 1013.52 1013.87 1014.28 1014.55 1014.77 1015.17 1015.47 1015.77 1016.03 1016.40 1016.79 1017.07 1017.27 1017.47 1017.64 1017.86 1018.02 1018.08 1018.00
1013.75 1014.39 1014.35 1013.25 1011.66 1010.47 1010.01 1009.58 1009.75 1009.27 1008.74 1008.62 1008.46 1008.64 1008.50 1008.46 1008.70 1008.78 1009.26 1009.71 1009.97 1010.17 1010.48 1010.64 1010.89 1011.24 1011.67 1012.22 1012.88 1013.26 1013.52 1013.88 1014.39 1014.63 1014.95 1015.33 1015.66 1015.98 1016.26 1016.64 1016.95 1017.18 1017.44 1017.75 1017.90 1018.10 1018.23 1018.32 1018.32
1013.44 1014.12 1013.18 1012.04 1010.91 1009.93 1008.83 1008.86 1009.05 1008.15 1008.42 1008.10 1008.04 1008.28 1008.48 1008.68 1008.39 1008.93 1009.36 1009.79 1010.16 1010.34 1010.62 1010.95 1011.21 1011.46 1011.78 1012.30 1012.88 1013.23 1013.61 1014.07 1014.47 1014.81 1015.14 1015.50 1015.82 1016.10 1016.52 1016.83 1017.08 1017.46 1017.78 1017.90 1018.11 1018.27 1018.44 1018.44 1018.59
1012.98 1013.03 1012.57 1011.36 1010.48 1008.25 1008.01 1008.02 1007.52 1007.67 1007.21 1007.24 1007.36 1007.97 1008.01 1007.63 1008.31 1009.02 1009.71 1009.99 1010.38 1010.49 1010.70 1011.12 1011.45 1011.69 1012.03 1012.42 1013.04 1013.42 1013.78 1014.21 1014.67 1014.98 1015.40 1015.78 1016.05 1016.38 1016.78 1017.03 1017.30 1017.71 1017.98 1018.07 1018.29 1018.50 1018.69 1018.77 1018.87
1012.38 1012.55 1011.21 1010.25 1009.69 1007.96 1007.41 1007.55 1007.01 1006.68 1006.81 1007.02 1007.10 1007.34 1007.47 1007.29 1008.35 1009.16 1009.94 1010.35 1010.43 1010.58 1010.73 1011.16 1011.53 1011.85 1012.17 1012.44 1013.26 1013.69 1013.99 1014.44 1014.93 1015.34 1015.70 1016.09 1016.57 1017.03 1017.39 1017.39 1017.62 1017.91 1018.11 1018.32 1018.56 1018.75 1018.93 1019.22 1019.26
1012.14 1010.74 1009.55 1008.92 1008.31 1007.44 1007.17 1007.19 1006.67 1006.89 1006.87 1006.81 1006.95 1007.20 1007.81 1008.09 1007.94 1008.62 1009.20 1009.57 1009.92 1010.46 1010.87 1011.09 1011.47 1011.88 1012.31 1012.58 1013.45 1014.07 1014.46 1014.91 1015.42 1015.85 1016.18 1016.54 1016.90 1017.27 1017.46 1017.57 1017.78 1018.14 1018.31 1018.60 1018.84 1019.02 1019.33 1019.51 1019.67
1010.62 1008.98 1008.65 1007.99 1007.69 1007.40 1007.21 1007.08 1006.89 1006.73 1006.90 1006.35 1006.40 1007.02 1007.94 1008.61 1008.26 1008.29 1008.59 1008.79 1008.87 1009.83 1010.60 1011.13 1011.49 1011.70 1012.23 1012.84 1013.54 1014.33 1014.96 1015.31 1015.65 1016.19 1016.58 1016.87 1017.15 1017.48 1017.75 1018.01 1018.40 1018.71 1018.85 1019.17 1019.31 1019.53 1019.75 1019.82 1019.89
1010.15 1008.87 1008.67 1008.02 1007.55 1007.30 1007.15 1006.80 1006.60 1006.61 1005.91 1005.67 1006.07 1006.78 1007.58 1008.26 1008.38 1007.80 1008.15 1008.58 1009.13 1009.83 1010.19 1010.80 1011.45 1011.88 1012.32 1012.81 1013.56 1014.24 1014.96 1015.64 1016.10 1016.32 1016.77 1017.19 1017.53 1017.85 1018.08 1018.29 1018.66 1018.98 1019.20 1019.39 1019.50 1019.67 1019.73 1019.87 1020.00
1009.59 1008.79 1008.41 1007.92 1007.67 1007.18 1007.34 1006.69 1006.50 1006.13 1005.79 1005.99 1006.39 1006.81 1007.18 1007.48 1007.55 1007.71 1008.04 1008.47 1008.95 1009.59 1010.19 1010.33 1010.99 1011.58 1012.09 1012.87 1013.55 1014.33 1014.93 1015.54 1016.15 1016.64 1016.88 1017.16 1017.59 1017.91 1018.13 1018.44 1018.76 1019.01 1019.24 1019.47 1019.66 1019.86 1020.00 1020.13 1020.16
1008.91 1008.64 1008.19 1007.85 1007.41 1007.20 1007.28 1006.85 1006.87 1005.61 1005.79 1005.92 1006.27 1006.69 1006.96 1007.02 1007.15 1007.76 1007.97 1007.94 1008.06 1009.08 1009.63 1010.39 1010.84 1011.22 1011.73 1012.52 1013.25 1014.06 1014.88 1015.38 1015.85 1016.40 1016.76 1017.06 1017.41 1017.81 1018.31 1018.67 1018.93 1019.19 1019.43 1019.72 1019.90 1020.09 1020.23 1020.29 1020.28
1008.99 1008.88 1008.18 1007.43 1007.31 1007.07 1007.20 1006.09 1004.63 1005.51 1005.72 1005.70 1005.93 1006.16 1006.44 1006.49 1007.00 1007.04 1006.68 1007.21 1007.31 1007.85 1009.15 1009.73 1010.40 1011.08 1011.54 1012.47 1013.12 1013.76 1014.39 1015.18 1015.75 1016.21 1016.51 1016.83 1017.19 1017.69 1018.18 1018.61 1018.97 1019.28 1019.56 1019.81 1020.03 1020.19 1020.30 1020.35 1020.36
1008.99 1008.55 1007.77 1006.12 1007.05 1006.92 1007.16 1002.52 1003.85 1004.59 1005.16 1005.19 1005.21 1005.41 1005.72 1005.77 1006.04 1006.15 1006.64 1006.97 1007.70 1008.04 1008.20 1009.19 1009.87 1010.58 1011.36 1012.15 1012.99 1013.63 1014.24 1014.84 1015.46 1015.88 1016.31 1016.69 1017.11 1017.55 1018.13 1018.62 1019.08 1019.30 1019.52 1019.84 1020.20 1020.37 1020.42 1020.48 1020.53
1008.52 1007.40 1006.64 1006.39 1006.09 1006.51 1006.10 1002.74 1003.69 1003.67 1004.10 1003.99 1003.93 1004.23 1004.69 1005.02 1005.21 1005.43 1005.82 1006.20 1006.68 1007.21 1007.87 1008.53 1009.32 1009.92 1010.66 1011.65 1012.59 1013.22 1013.83 1014.46 1015.02 1015.52 1016.03 1016.56 1017.01 1017.51 1018.07 1018.51 1018.82 1019.14 1019.60 1019.93 1020.14 1020.44 1020.52 1020.66 1020.64
1006.59 1006.51 1005.94 1005.67 1005.73 1005.70 1005.43 1002.67 1003.71 1003.41 1003.43 1003.14 1002.99 1003.12 1003.47 1003.83 1003.68 1004.07 1004.71 1005.05 1005.67 1006.47 1007.17 1007.84 1008.72 1009.42 1010.37 1011.34 1012.25 1013.27 1013.90 1014.32 1014.80 1015.27 1015.69 1016.14 1016.63 1017.26 1017.95 1018.39 1018.72 1019.03 1019.52 1019.87 1020.14 1020.39 1020.55 1020.59 1020.61
1006.44 1006.29 1005.57 1005.24 1005.47 1005.14 1004.57 1002.83 1003.51 1003.54 1003.13 1002.73 1002.65 1002.97 1003.20 1003.20 1002.94 1003.17 1003.77 1004.46 1005.23 1005.81 1006.61 1007.21 1007.77 1008.47 1009.65 1010.84 1011.89 1012.81 1013.27 1013.94 1014.48 1014.85 1015.19 1015.74 1016.33 1016.91 1017.47 1018.06 1018.59 1019.06 1019.41 1019.73 1020.07 1020.32 1020.62 1020.78 1020.74
1006.42 1006.02 1005.37 1005.21 1005.27 1005.09 1004.37 1002.97 1003.54 1003.35 1002.57 1002.38 1002.39 1002.35 1002.65 1003.02 1003.06 1003.19 1003.31 1003.74 1004.41 1004.90 1005.35 1006.35 1007.00 1007.66 1008.39 1009.33 1010.25 1011.27 1012.03 1013.13 1013.60 1014.25 1014.70 1015.18 1015.87 1016.51 1017.04 1017.50 1018.14 1018.65 1019.24 1019.76 1020.07 1020.32 1020.65 1020.72 1020.71
1005.64 1004.88 1004.95 1004.93 1004.96 1004.60 1004.57 1003.02 1003.42 1003.05 1002.64 1002.13 1001.85 1001.58 1001.70 1002.00 1002.37 1002.53 1002.94 1002.98 1003.36 1003.95 1004.29 1004.83 1005.49 1006.47 1007.15 1008.20 1009.64 1011.05 1012.13 1013.09 1013.65 1014.04 1014.56 1015.06 1015.42 1015.98 1016.48 1016.95 1017.49 1018.21 1018.81 1019.46 1019.86 1020.19 1020.46 1020.87 1020.90
1005.24 1004.88 1004.81 1004.85 1005.49 1004.11 1004.46 1002.62 1002.62 1002.15 1001.94 1002.03 1001.12 1001.19 1001.03 1001.34 1001.55 1001.55 1001.96 1002.45 1002.64 1002.81 1003.22 1003.73 1004.65 1005.43 1006.48 1007.46 1008.43 1009.39 1009.99 1011.51 1011.99 1012.37 1013.50 1014.36 1015.05 1015.68 1016.19 1016.70 1017.23 1017.77 1018.39 1019.02 1019.48 1019.92 1020.25 1020.66 1021.05
1005.85 1005.83 1005.37 1004.76 1004.53 1004.54 1004.24 1003.71 1001.38 1001.76 1001.57 1001.27 1000.63 1000.31 1000.22 1000.38 1000.51 1000.63 1000.81 1001.12 1001.53 1002.21 1002.69 1003.38 1004.17 1004.86 1005.62 1006.46 1007.12 1008.06 1009.14 1010.06 1011.06 1012.31 1013.35 1014.14 1014.86 1015.40 1015.86 1016.28 1016.95 1017.63 1018.16 1018.71 1019.11 1019.58 1020.03 1020.45 1020.89
1004.38 1005.89 1005.42 1004.80 1004.72 1002.96 1002.87 1003.60 1000.57 1001.03 1000.60 1000.35 1000.04 999.54 999.22 999.34 999.55 999.63 999.61 1000.07 1000.64 1001.35 1002.02 1002.57 1003.28 1003.97 1004.67 1005.63 1006.45 1007.20 1008.14 1009.35 1010.62 1011.84 1012.96 1013.93 1014.75 1015.35 1015.73 1016.13 1016.71 1017.35 1018.01 1018.49 1018.90 1019.30 1019.70 1020.21 1020.61
1003.75 1004.73 1004.37 1003.27 1002.71 1001.15 1001.29 1002.31 1000.69 999.76 999.59 999.16 998.79 998.75 998.68 998.86 999.00 999.00 999.30 999.80 1000.17 1000.58 1001.28 1001.89 1002.62 1003.48 1004.18 1004.99 1005.75 1006.47 1007.34 1008.29 1009.19 1010.40 1011.68 1013.06 1014.28 1015.02 1015.52 1016.02 1016.59 1017.22 1017.74 1018.27 1018.73 1019.18 1019.63 1020.05 1020.47
1002.97 1003.34 1002.22 1002.11 1001.41 1001.39 1001.32 1000.60 999.72 998.83 998.96 998.89 998.39 998.44 998.48 998.61 998.77 998.83 998.97 999.45 999.65 1000.01 1000.51 1001.28 1001.95 1002.79 1003.56 1004.17 1004.95 1005.79 1006.69 1007.53 1008.45 1009.41 1010.51 1011.70 1012.71 1013.67 1014.54 1015.45 1016.22 1016.85 1017.50 1018.06 1018.60 1019.16 1019.54 1019.86 1020.21
1002.43 1002.64 1002.23 1002.15 1002.46 1001.85 1001.50 1001.03 1000.03 999.40 999.36 998.86 998.82 998.58 998.66 999.64 999.84 999.87 999.74 999.77 999.75 999.91 1000.08 1000.44 1001.26 1001.87 1002.82 1003.56 1004.56 1005.33 1006.23 1007.00 1008.00 1009.04 1009.98 1011.03 1012.09 1013.01 1014.07 1014.91 1015.78 1016.55 1017.23 1017.80 1018.44 1019.07 1019.47 1019.75 1020.03
1001.21 1001.75 1002.64 1002.77 1003.28 1002.20 1002.30 1002.14 1001.30 1000.99 1000.55 999.95 999.85 1000.02 1000.42 1000.64 1000.94 1000.89 1000.70 1000.43 1000.12 999.85 1000.04 1000.31 1000.80 1001.26 1001.96 1002.96 1003.92 1004.88 1005.74 1006.68 1007.70 1008.73 1009.79 1010.72 1011.75 1012.69 1013.65 1014.67 1015.49 1016.31 1016.94 1017.63 1018.24 1018.85 1019.24 1019.65 1019.99
1001.47 1001.12 1001.95 1002.03 1002.49 1002.26 1003.34 1003.04 1002.84 1002.57 1001.96 1001.83 1001.46 1001.49 1001.68 1001.83 1001.88 1001.99 1001.98 1001.75 1001.25 1000.65 1000.67 1000.91 1001.24 1001.84 1002.52 1003.15 1003.90 1004.79 1005.79 1006.81 1007.86 1008.67 1009.66 1010.60 1011.60 1012.49 1013.45 1014.42 1015.33 1016.22 1016.86 1017.48 1018.11 1018.51 1019.08 1019.52 1019.86
1000.41 1000.29 1000.71 1001.24 1002.51 1003.50 1004.11 1004.03 1003.97 1004.40 1004.13 1003.88 1003.26 1003.32 1003.08 1002.93 1003.05 1003.09 1002.95 1002.85 1002.55 1002.08 1001.86 1001.81 1001.98 1002.48 1002.96 1003.37 1004.31 1005.09 1005.77 1006.78 1007.93 1008.95 1009.80 1010.68 1011.69 1012.59 1013.35 1014.20 1015.18 1016.12 1016.80 1017.40 1018.04 1018.54 1018.95 1019.32 1019.68
Wind_Speed
3 2 2 5 4 4 5 8 3 4 4 3 0 3 7 3 8 6 4 4 9 12 10 12 16 17 17 17 17 14 14 13 11 11 14 17 16 16 17 17 17 15 15 14 13 12 11 11 11
3 3 5 3 5 2 7 5 11 14 6 2 4 1 0 5 1 2 5 5 12 12 11 12 17 18 17 16 15 14 11 12 12 11 11 12 13 16 17 17 16 16 15 13 12 11 12 11 11
4 3 5 5 5 10 7 7 14 5 9 6 2 1 2 3 1 5 4 13 15 13 13 12 16 16 14 14 16 15 14 14 13 13 14 13 13 12 12 14 14 14 13 12 12 11 11 11 11
3 4 4 4 11 9 8 4 6 3 2 5 3 3 2 2 3 4 6 13 13 11 12 16 18 18 18 16 17 16 15 15 14 14 14 14 14 14 14 14 13 13 12 12 12 12 12 11 11
4 2 3 4 10 6 5 6 4 3 3 5 5 3 3 2 3 5 9 10 12 9 9 13 19 19 18 17 17 17 17 16 16 15 16 15 15 15 15 15 13 13 12 12 11 11 10 10 11
1 2 2 11 15 4 6 7 4 5 3 3 3 4 5 1 6 10 9 7 9 9 8 10 14 17 19 17 16 17 16 17 16 17 16 16 16 15 15 14 13 13 12 11 11 10 10 9 10
5 4 7 4 12 6 8 8 8 14 4 11 3 7 3 4 8 9 9 8 9 9 9 7 9 11 14 15 13 16 15 16 16 17 16 16 15 15 14 13 12 11 10 11 11 11 11 11 10
5 4 5 6 9 16 5 8 6 9 12 2 9 8 6 7 12 9 7 7 7 7 8 7 5 7 7 10 10 10 12 14 14 14 14 12 13 13 12 10 11 11 10 10 11 11 11 11 10
4 3 7 10 11 19 2 6 4 2 5 3 6 3 4 10 16 11 6 4 4 5 7 6 7 5 5 10 7 9 11 11 11 12 13 10 5 7 7 9 10 10 10 10 10 10 11 10 9
5 8 12 8 14 7 4 7 6 4 4 4 3 2 4 14 20 19 17 16 12 11 8 8 8 8 7 7 7 5 5 5 5 6 7 5 6 5 6 8 10 9 9 9 9 10 9 7 4
7 22 7 6 14 5 6 4 3 6 4 9 11 5 9 13 17 20 20 19 18 11 8 7 9 9 8 7 5 3 3 3 4 6 5 5 4 4 4 3 3 3 6 3 5 5 4 5 4
10 6 16 5 7 6 8 3 6 9 11 3 6 5 11 17 18 22 21 20 16 15 12 9 8 9 7 7 6 6 5 3 3 4 6 4 3 4 4 3 4 3 2 4 3 3 3 4 4
14 6 6 11 17 11 6 9 10 9 11 3 3 7 13 15 21 19 12 14 15 15 13 13 9 10 9 9 6 6 5 5 5 4 5 4 4 4 4 4 3 3 3 3 3 3 3 4 4
3 6 21 17 11 5 13 15 5 9 10 7 6 9 10 14 18 13 14 18 20 17 14 11 11 9 12 10 10 7 5 5 5 5 5 6 4 4 4 4 3 3 2 2 3 2 2 2 2
11 17 15 21 4 10 3 21 22 8 8 11 9 10 9 13 8 17 20 18 19 17 13 15 14 9 12 11 9 7 7 6 5 5 6 6 5 5 5 4 4 3 3 4 3 2 2 3 3
4 4 12 11 17 8 11 32 19 15 12 15 12 12 10 14 13 17 13 13 12 12 18 14 13 14 11 10 8 6 6 6 5 5 5 6 6 6 5 4 3 4 4 3 2 2 2 2 2
17 20 19 14 6 8 17 24 7 10 18 21 21 18 15 14 11 13 12 13 13 15 14 16 16 16 15 11 9 7 8 6 5 5 5 6 6 6 5 4 4 5 4 3 2 1 2 1 2
24 23 22 21 7 12 17 31 16 6 11 17 17 16 15 17 19 16 16 16 14 15 14 15 13 15 14 9 6 4 4 4 5 5 5 7 6 7 5 4 5 5 4 3 2 2 0 1 1
20 21 19 13 9 14 20 28 17 12 11 17 15 10 11 13 15 12 12 10 9 13 15 17 18 16 13 9 9 6 9 6 4 5 8 8 7 7 7 5 5 4 4 4 4 3 1 2 2
26 26 24 17 9 12 12 21 8 9 11 13 14 13 10 7 9 8 10 10 14 16 18 17 18 16 15 12 10 4 7 3 5 6 8 9 9 9 7 7 6 6 4 5 4 3 2 1 1
23 26 27 17 6 17 7 23 15 8 6 8 9 10 10 12 13 12 10 13 13 16 19 19 21 19 18 16 9 4 6 4 3 4 5 6 9 9 7 8 7 6 5 4 4 4 4 2 1
26 19 24 23 15 19 10 18 12 19 21 13 19 17 16 10 8 11 9 10 14 17 17 18 18 19 17 18 15 15 11 8 8 8 7 7 9 8 7 7 7 6 4 5 4 4 3 3 3
17 9 16 16 14 12 10 10 11 14 14 16 19 19 16 12 13 14 14 13 14 13 14 14 15 17 17 19 18 15 13 9 5 5 9 8 6 8 8 8 7 6 4 5 6 5 4 3 3
19 13 21 19 14 21 20 17 21 9 18 14 14 19 19 17 12 13 14 8 10 10 10 13 16 17 17 18 18 19 18 11 10 9 9 7 6 5 6 7 6 6 5 6 5 5 6 5 3
7 16 11 16 17 20 20 18 21 7 19 22 21 18 16 10 11 12 11 9 9 13 14 13 15 16 17 18 18 18 16 16 17 15 11 11 7 4 7 7 7 5 5 5 5 5 5 5 4
7 5 3 8 5 12 5 11 12 25 20 8 13 14 13 11 10 10 8 8 10 13 15 16 16 15 16 18 18 15 15 11 11 14 11 10 10 9 10 8 7 7 7 6 5 3 3 5 4
7 8 3 6 3 3 3 5 7 6 14 22 21 16 13 5 4 8 8 7 7 9 14 17 16 16 16 17 14 14 14 13 12 11 10 10 9 8 11 10 9 7 6 6 6 4 4 4 4
10 8 2 4 2 5 3 3 7 3 10 14 10 4 6 3 6 8 8 8 6 6 8 11 14 16 15 15 14 12 13 11 10 10 10 10 8 10 11 9 8 7 6 6 6 4 3 5 3
7 7 6 5 4 3 3 5 4 5 4 6 7 7 7 8 7 6 6 6 5 2 3 4 6 8 9 10 11 12 10 10 9 9 9 9 8 9 9 9 8 7 7 6 5 5 6 6 5
3 4 4 4 3 2 4 7 4 5 6 5 6 7 7 5 5 5 6 5 6 5 5 4 5 8 8 10 10 9 11 11 10 8 8 9 9 6 8 9 8 7 6 6 6 6 5 6 6
Wind_Direction
113 109 95 45 88 64 241 241 252 228 235 202 284 177 202 203 165 210 331 178 137 138 146 150 152 148 142 139 132 124 133 135 137 137 123 132 134 133 128 116 108 100 94 86 83 81 80 75 69
133 150 46 90 114 168 251 214 228 222 218 113 168 155 245 244 187 290 125 213 145 137 145 144 141 141 139 138 127 125 139 140 143 137 124 113 114 112 104 100 97 96 95 98 97 91 84 76 69
141 45 108 146 167 217 229 213 232 261 239 223 254 182 178 230 269 197 272 161 149 141 143 142 135 127 138 137 136 144 149 144 140 138 136 132 125 115 112 98 98 106 105 100 95 88 82 73 66
164 11 34 128 219 241 206 230 231 231 221 205 167 245 257 185 174 191 143 161 143 141 143 144 142 146 151 150 145 152 153 143 146 138 131 125 119 114 110 112 110 104 98 89 82 73 66 64 62
42 54 177 205 243 236 236 242 185 294 297 152 154 244 243 230 156 147 152 166 155 138 148 148 147 152 152 152 151 158 157 148 148 142 134 130 125 123 119 116 113 105 99 93 86 80 75 67 62
74 101 177 214 231 212 228 207 189 233 219 262 168 132 250 280 146 157 150 150 160 144 149 153 153 154 154 152 163 165 157 151 150 145 140 137 135 131 126 124 120 113 106 100 95 88 81 70 65
167 151 226 219 236 262 232 156 187 230 224 250 156 159 236 236 182 152 141 130 151 154 150 152 156 154 153 149 161 166 157 155 155 150 147 142 138 132 128 124 114 109 105 98 90 85 79 71 65
151 145 220 216 221 251 205 175 194 174 240 88 161 224 228 206 161 125 115 131 153 148 143 144 140 146 151 138 153 157 154 154 155 149 138 130 125 122 119 106 115 113 104 93 87 81 71 65 59
136 214 214 205 210 229 151 190 206 178 172 204 201 204 312 138 144 133 133 147 150 144 148 146 142 133 134 132 148 146 144 143 132 121 113 99 91 97 101 117 113 110 94 91 87 75 69 63 51
186 215 221 211 223 231 187 185 189 153 206 223 234 197 74 156 161 169 177 184 185 174 173 164 152 143 138 131 126 121 114 109 108 108 111 109 118 128 120 100 96 103 98 94 87 77 65 60 47
212 239 215 232 236 254 231 236 238 172 198 220 206 167 153 174 179 184 190 193 191 174 168 172 165 152 140 134 128 123 111 118 121 128 128 131 124 110 108 96 90 93 93 75 75 65 58 54 49
253 236 244 249 248 241 229 189 230 204 231 187 206 166 162 185 197 193 195 197 186 190 184 166 163 152 150 142 150 144 137 131 137 147 146 140 132 136 136 128 128 116 116 108 89 82 78 66 53
243 233 244 241 248 249 261 230 222 223 236 238 102 162 186 191 202 206 204 197 196 197 193 183 166 168 152 156 150 152 151 150 158 163 168 152 153 154 140 139 139 138 127 109 89 71 60 53 40
255 250 248 243 249 240 238 252 193 219 244 255 194 210 210 202 208 200 199 201 200 199 192 178 179 173 160 169 169 166 158 166 161 170 177 170 160 151 153 150 142 122 106 94 99 101 87 67 42
263 269 263 257 226 250 167 265 235 229 206 237 221 231 217 219 182 204 207 204 198 197 181 188 177 168 171 175 173 165 170 164 169 176 178 172 162 163 157 156 147 140 125 111 94 67 59 46 14
271 227 247 244 226 221 162 259 250 208 203 237 225 234 216 226 204 217 211 212 203 188 191 180 181 177 176 172 170 166 166 163 172 170 167 174 168 165 157 154 159 146 125 122 98 64 57 54 36
234 248 237 259 215 201 195 257 219 190 211 229 232 230 220 227 213 217 204 203 192 197 184 184 184 183 177 171 174 171 169 176 174 162 164 174 168 163 154 162 157 151 136 120 138 95 90 34 338
228 228 238 242 201 197 222 249 237 220 202 226 230 230 221 218 221 216 211 207 195 192 189 183 185 184 181 166 140 124 154 166 161 173 175 167 164 162 160 159 155 148 136 135 131 127 107 131 340
250 240 249 235 215 209 225 248 234 227 228 232 236 226 223 220 227 217 217 211 193 189 184 189 183 187 168 166 167 174 194 179 175 170 174 171 166 165 161 157 150 155 158 167 163 136 117 23 14
236 244 242 253 209 228 245 259 222 223 238 227 232 238 227 227 242 230 214 197 194 193 193 191 195 180 184 180 185 165 163 165 178 177 179 172 169 170 167 162 166 161 145 154 159 148 123 111 48
258 228 233 237 207 235 242 262 251 248 254 264 253 252 237 218 226 235 212 208 204 203 195 193 193 187 185 178 148 91 85 68 113 178 174 181 176 170 166 166 158 159 154 168 171 164 157 170 95
257 241 237 238 236 238 172 261 235 234 240 236 248 247 247 233 229 237 208 204 205 210 206 203 192 185 185 175 172 174 182 174 198 183 171 173 172 171 167 161 157 157 154 167 171 167 156 140 184
246 268 277 235 231 246 212 258 251 234 236 234 239 245 242 229 216 233 229 213 208 211 207 203 194 188 184 182 184 182 190 184 132 140 157 173 166 168 165 160 156 159 159 166 169 156 166 167 161
225 237 261 250 242 246 233 225 257 208 224 236 233 237 235 235 224 227 237 204 206 204 198 190 189 190 183 181 186 188 188 154 149 153 167 171 169 167 166 157 157 156 158 168 174 168 167 170 165
187 205 229 214 214 236 221 216 232 212 214 224 231 232 237 217 217 224 224 200 199 188 189 186 186 190 184 184 187 186 183 171 169 167 171 163 162 167 178 162 161 162 162 166 158 161 170 167 169
180 201 207 233 212 217 162 212 227 222 236 239 231 238 258 232 223 230 227 215 199 190 182 183 186 185 181 182 186 183 173 175 174 173 169 174 176 176 165 163 160 158 159 158 159 160 163 165 168
196 228 142 346 339 98 194 280 305 189 223 233 239 245 251 326 288 275 284 261 227 191 190 189 187 187 185 187 180 181 175 171 170 162 161 167 164 156 160 161 159 156 155 156 154 158 167 158 161
183 153 159 184 271 220 245 268 228 254 217 232 243 268 316 352 323 307 307 301 269 212 186 188 190 191 183 179 177 175 170 160 148 147 155 156 149 150 154 155 152 152 152 152 153 153 164 161 172
163 176 182 186 200 98 348 274 266 241 259 280 340 341 336 323 332 332 324 326 326 50 95 128 145 143 161 165 161 153 148 139 139 147 147 146 136 145 149 153 148 153 154 157 157 164 166 174 177
252 155 142 151 175 122 134 273 327 327 325 303 337 325 317 340 341 350 345 348 10 28 53 81 115 141 148 140 137 136 134 133 133 131 128 133 135 129 142 142 144 148 152 152 160 164 167 172 182